GW1851 Weather Reports


Display with metric or nautical units.
time (UTC)temp
F
wind
direction
speed
MPH
gust
MPH
rain 1hr
in
rain 24hr
in
rain mn
in
humidity
%
barometer
mb
20260831042841 77 213 0.0 1.0 0.00 0.00 0.00 72 1015.3
20260831042340 77 209 0.0 1.0 0.00 0.00 0.00 72 1015.3
20260831041836 77 223 2.0 5.0 0.00 0.00 0.00 72 1015.3
20260831041335 77 212 0.0 1.0 0.00 0.00 0.00 73 1015.4
20260831040830 77 197 0.0 1.0 0.00 0.00 0.00 74 1015.3
20260831040330 77 212 0.0 0.0 0.00 0.00 0.00 73 1015.4
20260831035828 77 212 0.0 0.0 0.00 0.00 0.00 73 1015.4
20260831035327 77 212 0.0 0.0 0.00 0.00 0.00 73 1015.3
20260831034822 77 220 0.0 0.0 0.00 0.00 0.00 72 1015.4
20260831034318 78 218 0.0 0.0 0.00 0.00 0.00 73 1015.3
20260831033813 78 213 0.0 1.0 0.00 0.00 0.00 72 1015.6
20260831033313 78 217 0.0 1.0 0.00 0.00 0.00 72 1015.3
20260831032808 78 217 1.0 1.0 0.00 0.00 0.00 71 1015.3
20260831032306 78 222 0.0 1.0 0.00 0.00 0.00 71 1015.5
20260831031758 78 204 0.0 1.0 0.00 0.00 0.00 71 1015.3
20260831031257 78 221 0.0 1.0 0.00 0.00 0.00 72 1015.2
20260831030752 79 213 1.0 1.0 0.00 0.00 0.00 71 1015.2
20260831030250 79 235 2.0 3.0 0.00 0.00 0.00 72 1015.5
20260831025749 79 199 1.0 1.0 0.00 0.00 0.00 72 1015.2
20260831025244 79 208 0.0 0.0 0.00 0.00 0.00 72 1015.1
20260831024740 79 202 2.0 2.0 0.00 0.00 0.00 73 1015.1
20260831024239 79 221 1.0 1.0 0.00 0.00 0.00 73 1015.2
20260831023738 79 213 0.0 0.0 0.00 0.00 0.00 74 1015.0
20260831023237 79 215 0.0 0.0 0.00 0.00 0.00 74 1015.1
20260831022732 79 213 0.0 0.0 0.00 0.00 0.00 75 1015.3
20260831022226 78 215 0.0 0.0 0.00 0.00 0.00 76 1015.1
20260831021721 77 210 0.0 0.0 0.00 0.00 0.00 79 1015.2
20260831021220 77 210 0.0 0.0 0.00 0.00 0.00 83 1015.1
20260831020717 78 210 0.0 0.0 0.00 0.00 0.00 83 1015.3
20260831020216 78 210 0.0 0.0 0.00 0.00 0.00 82 1015.1
20260831015712 78 210 0.0 0.0 0.00 0.00 0.00 81 1015.0
20260831015207 78 210 0.0 0.0 0.00 0.00 0.00 79 1015.0
20260831014702 79 210 0.0 0.0 0.00 0.00 0.00 79 1015.0
20260831014156 79 210 0.0 0.0 0.00 0.00 0.00 78 1015.0
20260831013653 79 209 0.0 0.0 0.00 0.00 0.00 79 1015.0
20260831013152 79 210 0.0 0.0 0.00 0.00 0.00 78 1014.8
20260831012647 79 209 0.0 0.0 0.00 0.00 0.00 78 1015.0
20260831012143 79 207 0.0 0.0 0.00 0.00 0.00 81 1014.7
20260831011642 79 207 0.0 0.0 0.00 0.00 0.00 81 1014.6
20260831011137 79 206 0.0 0.0 0.00 0.00 0.00 82 1014.5
20260831010633 79 206 0.0 0.0 0.00 0.00 0.00 83 1014.4
20260831010128 79 206 0.0 0.0 0.00 0.00 0.00 82 1014.4
20260831005623 79 207 0.0 0.0 0.00 0.00 0.00 82 1014.4
20260831005118 80 207 0.0 0.0 0.00 0.00 0.00 82 1014.7
20260831004614 80 207 0.0 0.0 0.00 0.00 0.00 81 1014.4
20260831004109 81 207 0.0 0.0 0.00 0.00 0.00 82 1014.5
20260831003605 81 206 0.0 0.0 0.00 0.00 0.00 78 1014.4
20260831003101 81 213 0.0 0.0 0.00 0.00 0.00 80 1014.6
20260831002559 82 213 0.0 0.0 0.00 0.00 0.00 78 1014.4
20260831002054 83 214 0.0 0.0 0.00 0.00 0.00 77 1014.5
20260831001550 83 213 0.0 0.0 0.00 0.00 0.00 75 1014.4
20260831001046 84 214 0.0 0.0 0.00 0.00 0.00 74 1014.4
20260831000542 85 214 0.0 0.0 0.00 0.00 0.00 73 1014.4
20260831000042 85 214 0.0 0.0 0.00 0.00 0.00 69 1014.3
20260830235541 86 213 0.0 0.0 0.00 0.00 0.00 71 1014.5
20260830235036 87 215 0.0 0.0 0.00 0.00 0.00 69 1014.5
20260830234531 87 218 0.0 0.0 0.00 0.00 0.00 67 1014.4
20260830234026 87 216 0.0 0.0 0.00 0.00 0.00 64 1014.2
20260830233521 88 219 1.0 1.0 0.00 0.00 0.00 66 1014.4
20260830233018 87 217 1.0 1.0 0.00 0.00 0.00 64 1014.6
20260830232513 87 221 0.0 0.0 0.00 0.00 0.00 69 1014.6
20260830232009 87 220 0.0 0.0 0.00 0.00 0.00 67 1014.4
20260830231505 86 211 0.0 0.0 0.00 0.00 0.00 70 1014.5
20260830231004 86 209 0.0 0.0 0.00 0.00 0.00 69 1014.7
20260830230459 87 209 0.0 0.0 0.00 0.00 0.00 69 1014.6
20260830225958 88 225 0.0 0.0 0.00 0.00 0.00 62 1014.5
20260830225454 88 214 0.0 0.0 0.00 0.00 0.00 63 1014.4
20260830224954 88 217 0.0 0.0 0.00 0.00 0.00 64 1014.2
20260830224452 89 215 0.0 0.0 0.00 0.00 0.00 62 1014.6
20260830223949 89 228 1.0 1.0 0.00 0.00 0.00 60 1014.5
20260830223446 90 214 1.0 1.0 0.00 0.00 0.00 59 1014.7
20260830222945 90 222 2.0 2.0 0.00 0.00 0.00 59 1014.5
20260830222440 90 217 0.0 0.0 0.00 0.00 0.00 59 1014.5
20260830221936 90 230 1.0 1.0 0.00 0.00 0.00 60 1014.7
20260830221432 90 219 1.0 1.0 0.00 0.00 0.00 60 1014.4
20260830220927 91 221 2.0 3.0 0.00 0.00 0.00 58 1014.7
20260830220422 91 254 2.0 2.0 0.00 0.00 0.00 57 1014.4
20260830215919 90 215 0.0 0.0 0.00 0.00 0.00 60 1014.7
20260830215414 90 221 3.0 3.0 0.00 0.00 0.00 61 1014.4
20260830214909 89 225 2.0 2.0 0.00 0.00 0.00 59 1014.7
20260830214404 90 224 1.0 1.0 0.00 0.00 0.00 60 1014.4
20260830213858 91 232 3.0 3.0 0.00 0.00 0.00 60 1014.5
20260830213354 90 230 1.0 2.0 0.00 0.00 0.00 62 1014.5
20260830212849 90 231 1.0 1.0 0.00 0.00 0.00 58 1014.6
20260830212345 89 224 0.0 1.0 0.00 0.00 0.00 62 1014.7
20260830211844 89 222 0.0 0.0 0.00 0.00 0.00 65 1014.7
20260830211339 89 221 0.0 0.0 0.00 0.00 0.00 65 1015.0
20260830210835 89 219 0.0 0.0 0.00 0.00 0.00 59 1014.7
20260830210333 89 207 1.0 1.0 0.00 0.00 0.00 60 1014.8
20260830205832 90 226 1.0 1.0 0.00 0.00 0.00 59 1014.7
20260830205331 90 230 1.0 1.0 0.00 0.00 0.00 60 1014.6
20260830204827 90 222 2.0 2.0 0.00 0.00 0.00 59 1014.8
20260830204325 90 229 1.0 1.0 0.00 0.00 0.00 58 1014.8
20260830203821 90 214 2.0 2.0 0.00 0.00 0.00 58 1014.8
20260830203317 91 256 1.0 2.0 0.00 0.00 0.00 57 1014.8
20260830202816 90 241 3.0 3.0 0.00 0.00 0.00 57 1014.8
20260830202312 90 215 0.0 1.0 0.00 0.00 0.00 58 1014.7
20260830201807 90 220 1.0 1.0 0.00 0.00 0.00 59 1014.6
20260830201301 91 215 1.0 1.0 0.00 0.00 0.00 56 1015.1
20260830200756 92 238 3.0 6.0 0.00 0.00 0.00 55 1014.8
20260830200255 92 231 3.0 3.0 0.00 0.00 0.00 56 1015.0
20260830195751 92 209 3.0 3.0 0.00 0.00 0.00 57 1015.0
20260830195250 92 262 3.0 5.0 0.00 0.00 0.00 54 1015.1
20260830194748 93 236 3.0 5.0 0.00 0.00 0.00 58 1015.3
20260830194243 92 230 1.0 1.0 0.00 0.00 0.00 58 1015.3
20260830193743 92 203 2.0 2.0 0.00 0.00 0.00 56 1015.0
20260830193237 92 225 2.0 3.0 0.00 0.00 0.00 56 1015.2
20260830192733 92 235 2.0 3.0 0.00 0.00 0.00 54 1015.2
20260830192228 91 217 1.0 1.0 0.00 0.00 0.00 55 1015.1
20260830191724 91 240 3.0 3.0 0.00 0.00 0.00 57 1015.2
20260830191223 91 212 1.0 2.0 0.00 0.00 0.00 57 1015.0
20260830190719 91 215 3.0 5.0 0.00 0.00 0.00 59 1015.3
20260830190214 91 229 1.0 1.0 0.00 0.00 0.00 58 1015.3
20260830185712 90 217 2.0 3.0 0.00 0.00 0.00 59 1015.7
20260830185208 90 217 2.0 2.0 0.00 0.00 0.00 57 1015.3
20260830184707 90 190 1.0 1.0 0.00 0.00 0.00 59 1015.5
20260830184207 91 200 2.0 3.0 0.00 0.00 0.00 56 1015.6
20260830183702 89 235 2.0 2.0 0.00 0.00 0.00 59 1015.5
20260830183157 90 190 1.0 2.0 0.00 0.00 0.00 58 1015.7
20260830182652 89 221 1.0 1.0 0.00 0.00 0.00 59 1015.6
20260830182149 90 235 1.0 2.0 0.00 0.00 0.00 58 1015.6
20260830181644 89 220 3.0 5.0 0.00 0.00 0.00 59 1015.6
20260830181139 89 215 1.0 1.0 0.00 0.00 0.00 61 1015.7
20260830180638 90 258 5.0 8.0 0.00 0.00 0.00 56 1015.7
20260830180132 88 223 1.0 1.0 0.00 0.00 0.00 60 1016.1
20260830175631 88 219 1.0 2.0 0.00 0.00 0.00 62 1015.7
20260830175127 88 179 1.0 1.0 0.00 0.00 0.00 63 1016.0
20260830174622 88 216 2.0 2.0 0.00 0.00 0.00 63 1015.9
20260830174118 88 224 1.0 2.0 0.00 0.00 0.00 64 1015.9
20260830173612 87 204 3.0 3.0 0.00 0.00 0.00 64 1016.0
20260830173107 87 227 3.0 3.0 0.00 0.00 0.00 65 1016.0
20260830172605 87 244 1.0 1.0 0.00 0.00 0.00 63 1016.3
20260830172101 88 224 1.0 1.0 0.00 0.00 0.00 62 1016.1
20260830171555 87 222 3.0 3.0 0.00 0.00 0.00 63 1016.4
20260830171051 86 217 1.0 2.0 0.00 0.00 0.00 63 1016.4
20260830170550 86 224 1.0 2.0 0.00 0.00 0.00 66 1016.3
20260830170050 85 208 1.0 1.0 0.00 0.00 0.00 68 1016.4
20260830165545 85 209 1.0 1.0 0.00 0.00 0.00 66 1016.8
20260830165040 84 218 1.0 2.0 0.00 0.00 0.00 66 1017.0
20260830164536 84 217 1.0 1.0 0.00 0.00 0.00 66 1017.1
20260830164032 85 226 1.0 1.0 0.00 0.00 0.00 67 1017.0
20260830163529 85 218 1.0 1.0 0.00 0.00 0.00 65 1017.0
20260830163028 84 206 0.0 0.0 0.00 0.00 0.00 67 1017.1
20260830162524 83 209 0.0 0.0 0.00 0.00 0.00 75 1017.5
20260830162024 83 229 0.0 0.0 0.00 0.00 0.00 75 1017.4
20260830161519 83 228 0.0 0.0 0.00 0.00 0.00 70 1017.4
20260830161014 82 224 0.0 0.0 0.00 0.00 0.00 73 1017.3
20260830160510 82 219 0.0 0.0 0.00 0.00 0.00 70 1016.9
20260830160005 82 223 1.0 1.0 0.00 0.00 0.00 71 1017.2
20260830155501 83 233 1.0 2.0 0.00 0.00 0.00 71 1016.9
20260830154957 83 216 1.0 1.0 0.00 0.00 0.00 67 1016.6
20260830154452 83 224 1.0 2.0 0.00 0.00 0.00 68 1016.6
20260830153948 83 231 3.0 3.0 0.00 0.00 0.00 67 1016.7
20260830153444 82 195 1.0 2.0 0.00 0.00 0.00 69 1016.6
20260830152943 81 215 1.0 2.0 0.00 0.00 0.00 70 1016.6
20260830152438 81 211 1.0 1.0 0.00 0.00 0.00 70 1016.6
20260830151937 81 208 1.0 1.0 0.00 0.00 0.00 70 1016.7
20260830151437 80 218 1.0 1.0 0.00 0.00 0.00 73 1016.2
20260830150937 79 201 1.0 1.0 0.00 0.00 0.00 72 1016.3
20260830150432 79 232 2.0 2.0 0.00 0.00 0.00 71 1016.5
20260830145926 80 218 1.0 2.0 0.00 0.00 0.00 71 1016.3
20260830145426 80 223 1.0 1.0 0.00 0.00 0.00 71 1016.3
20260830144922 80 236 3.0 3.0 0.00 0.00 0.00 70 1016.2
20260830144418 80 203 1.0 1.0 0.00 0.00 0.00 69 1016.0
20260830143913 80 212 0.0 0.0 0.00 0.00 0.00 71 1016.2
20260830143408 79 192 1.0 2.0 0.00 0.00 0.00 72 1016.0
20260830142907 79 228 1.0 1.0 0.00 0.00 0.00 71 1015.9
20260830142402 79 221 1.0 1.0 0.00 0.00 0.00 72 1016.1
20260830141857 79 208 2.0 3.0 0.00 0.00 0.00 74 1016.1
20260830141353 78 212 1.0 1.0 0.00 0.00 0.00 74 1016.1
20260830140847 77 222 1.0 2.0 0.00 0.00 0.00 74 1016.0
20260830140342 76 210 0.0 0.0 0.00 0.00 0.00 75 1016.3
20260830135836 76 213 0.0 1.0 0.00 0.00 0.00 77 1016.4
20260830135332 75 207 0.0 1.0 0.00 0.00 0.00 78 1016.3
20260830134827 74 213 0.0 0.0 0.00 0.00 0.00 80 1016.4
20260830134328 74 209 0.0 0.0 0.00 0.00 0.00 79 1016.5
20260830133824 74 208 0.0 0.0 0.00 0.00 0.00 81 1016.5
20260830133320 74 211 0.0 0.0 0.00 0.00 0.00 82 1016.6
20260830132815 75 207 0.0 0.0 0.00 0.00 0.00 78 1016.5
20260830132311 75 219 0.0 1.0 0.00 0.00 0.00 78 1016.6
20260830131809 75 216 0.0 1.0 0.00 0.00 0.00 78 1016.7
20260830131304 75 216 0.0 1.0 0.00 0.00 0.00 78 1016.5
20260830130759 75 209 0.0 0.0 0.00 0.00 0.00 79 1016.6
20260830130254 74 218 1.0 1.0 0.00 0.00 0.00 79 1016.5
20260830125753 73 207 0.0 0.0 0.00 0.00 0.00 80 1016.5
20260830125249 73 218 1.0 2.0 0.00 0.00 0.00 80 1016.4
20260830124746 73 215 0.0 0.0 0.00 0.00 0.00 82 1016.4
20260830124241 72 215 0.0 0.0 0.00 0.00 0.00 83 1016.3
20260830123738 72 221 2.0 2.0 0.00 0.00 0.00 83 1015.9
20260830123234 71 214 0.0 0.0 0.00 0.00 0.00 84 1015.9
20260830122732 71 231 0.0 0.0 0.00 0.00 0.00 85 1015.7
20260830122226 71 218 0.0 0.0 0.00 0.00 0.00 85 1015.6
20260830121722 71 215 0.0 1.0 0.00 0.00 0.00 85 1015.5
20260830121221 71 219 1.0 1.0 0.00 0.00 0.00 86 1015.7
20260830120716 71 201 0.0 0.0 0.00 0.00 0.00 86 1015.8
20260830120212 71 207 1.0 1.0 0.00 0.00 0.00 85 1015.5
20260830115708 71 220 1.0 2.0 0.00 0.00 0.00 85 1015.9
20260830115204 71 220 0.0 0.0 0.00 0.00 0.00 85 1015.7
20260830114701 71 213 2.0 2.0 0.00 0.00 0.00 85 1015.7
20260830114200 70 210 0.0 1.0 0.00 0.00 0.00 85 1015.3
20260830113655 71 211 0.0 0.0 0.00 0.00 0.00 85 1015.4
20260830113150 71 187 1.0 2.0 0.00 0.00 0.00 85 1015.5
20260830112647 71 217 0.0 1.0 0.00 0.00 0.00 84 1015.4
20260830112143 71 215 0.0 1.0 0.00 0.00 0.00 84 1015.6
20260830111638 71 208 0.0 1.0 0.00 0.00 0.00 85 1015.8
20260830111133 71 218 0.0 0.0 0.00 0.00 0.00 85 1015.5
20260830110628 71 211 0.0 0.0 0.00 0.00 0.00 85 1015.5
20260830110124 71 210 0.0 0.0 0.00 0.00 0.00 85 1015.4
20260830105618 71 212 0.0 0.0 0.00 0.00 0.00 85 1015.5
20260830105114 71 226 1.0 1.0 0.00 0.00 0.00 84 1015.5
20260830104611 71 212 0.0 0.0 0.00 0.00 0.00 84 1015.6
20260830104108 71 217 0.0 0.0 0.00 0.00 0.00 83 1015.4
20260830103606 72 204 1.0 1.0 0.00 0.00 0.00 83 1015.6
20260830103101 71 216 0.0 1.0 0.00 0.00 0.00 82 1015.5
20260830102600 72 212 0.0 0.0 0.00 0.00 0.00 83 1015.3
20260830102056 72 222 0.0 1.0 0.00 0.00 0.00 82 1015.4
20260830101552 72 215 0.0 0.0 0.00 0.00 0.00 82 1015.6
20260830101051 72 214 0.0 0.0 0.00 0.00 0.00 81 1015.5
20260830100545 73 208 3.0 5.0 0.00 0.00 0.00 81 1015.6
20260830100045 73 195 2.0 2.0 0.00 0.00 0.00 80 1015.8
20260830095540 73 204 1.0 1.0 0.00 0.00 0.00 80 1015.5
20260830095036 73 211 0.0 1.0 0.00 0.00 0.00 80 1015.4
20260830094532 73 210 1.0 1.0 0.00 0.00 0.00 80 1015.4
20260830094032 73 212 0.0 0.0 0.00 0.00 0.00 79 1015.5
20260830093527 73 206 2.0 2.0 0.00 0.00 0.00 79 1015.4
20260830093024 73 212 1.0 1.0 0.00 0.00 0.00 79 1015.6
20260830092518 73 218 0.0 1.0 0.00 0.00 0.00 79 1015.4
20260830092016 73 210 0.0 1.0 0.00 0.00 0.00 79 1015.4
20260830091510 73 206 1.0 1.0 0.00 0.00 0.00 79 1015.5
20260830091009 74 212 1.0 1.0 0.00 0.00 0.00 79 1015.5
20260830090504 74 227 1.0 1.0 0.00 0.00 0.00 78 1015.6
20260830085959 73 220 1.0 1.0 0.00 0.00 0.00 79 1015.4
20260830085454 73 215 0.0 1.0 0.00 0.00 0.00 79 1015.6
20260830084949 73 210 0.0 0.0 0.00 0.00 0.00 79 1015.3
20260830084445 73 215 1.0 1.0 0.00 0.00 0.00 79 1015.7
20260830083940 73 213 3.0 3.0 0.00 0.00 0.00 79 1015.5
20260830083435 73 226 0.0 1.0 0.00 0.00 0.00 80 1015.5
20260830082935 73 204 2.0 2.0 0.00 0.00 0.00 81 1015.5
20260830082430 73 228 0.0 1.0 0.00 0.00 0.00 81 1015.4
20260830081925 73 213 0.0 0.0 0.00 0.00 0.00 82 1015.6
20260830081420 73 230 1.0 1.0 0.00 0.00 0.00 82 1015.7
20260830080919 72 204 1.0 2.0 0.00 0.00 0.00 82 1015.6
20260830080416 72 216 1.0 1.0 0.00 0.00 0.00 83 1015.6
20260830075915 72 214 1.0 1.0 0.00 0.00 0.00 83 1015.7
20260830075410 72 223 1.0 2.0 0.00 0.00 0.00 83 1015.8
20260830074906 72 207 0.0 1.0 0.00 0.00 0.00 83 1015.5
20260830074401 72 206 0.0 1.0 0.00 0.00 0.00 83 1015.7
20260830073857 72 218 0.0 1.0 0.00 0.00 0.00 83 1015.9
20260830073353 72 221 0.0 0.0 0.00 0.00 0.00 83 1015.9
20260830072848 72 217 1.0 1.0 0.00 0.00 0.00 83 1016.0
20260830072343 72 213 0.0 0.0 0.00 0.00 0.00 83 1016.1
20260830071838 72 215 0.0 1.0 0.00 0.00 0.00 84 1015.9
20260830071337 72 216 0.0 0.0 0.00 0.00 0.00 84 1016.1
20260830070836 72 226 1.0 1.0 0.00 0.00 0.00 84 1016.0
20260830070331 72 221 0.0 0.0 0.00 0.00 0.00 84 1016.2
20260830065830 72 215 0.0 0.0 0.00 0.00 0.00 84 1016.5
20260830065325 71 215 0.0 0.0 0.00 0.00 0.00 84 1016.2
20260830064823 71 218 1.0 1.0 0.00 0.00 0.00 84 1016.4
20260830064319 71 210 0.0 0.0 0.00 0.00 0.00 84 1016.2
20260830063818 71 199 0.0 1.0 0.00 0.00 0.00 85 1016.3
20260830063314 71 224 1.0 1.0 0.00 0.00 0.00 85 1016.0
20260830062808 71 216 0.0 1.0 0.00 0.00 0.00 85 1016.2
20260830062305 71 213 1.0 1.0 0.00 0.00 0.00 85 1016.3
20260830061756 71 221 0.0 0.0 0.00 0.00 0.00 85 1016.3
20260830061251 71 217 0.0 0.0 0.00 0.00 0.00 85 1016.4
20260830060748 71 213 0.0 1.0 0.00 0.00 0.00 85 1016.4
20260830060245 71 217 0.0 0.0 0.00 0.00 0.00 85 1016.6
20260830055739 71 207 1.0 1.0 0.00 0.00 0.00 85 1016.4
20260830055236 71 217 0.0 0.0 0.00 0.00 0.00 84 1016.5
20260830054730 71 215 0.0 0.0 0.00 0.00 0.00 84 1016.6
20260830054226 71 211 0.0 1.0 0.00 0.00 0.00 84 1016.5
20260830053722 71 220 0.0 0.0 0.00 0.00 0.00 84 1016.6
20260830053221 71 215 1.0 1.0 0.00 0.00 0.00 83 1016.6
20260830052716 71 203 1.0 2.0 0.00 0.00 0.00 83 1016.7
20260830052211 71 217 0.0 0.0 0.00 0.00 0.00 83 1016.7
20260830051711 71 219 0.0 0.0 0.00 0.00 0.00 83 1016.6
20260830051207 71 209 0.0 1.0 0.00 0.00 0.00 83 1016.7
20260830050705 71 214 0.0 0.0 0.00 0.00 0.00 83 1016.7
20260830050201 71 211 0.0 0.0 0.00 0.00 0.00 83 1016.7
20260830045659 71 211 1.0 2.0 0.00 0.00 0.00 82 1016.6
20260830045155 71 212 0.0 0.0 0.00 0.00 0.00 83 1016.7
20260830044653 71 213 0.0 0.0 0.00 0.00 0.00 83 1016.5
20260830044149 72 214 0.0 0.0 0.00 0.00 0.00 82 1016.7
20260830043649 72 212 0.0 0.0 0.00 0.00 0.00 82 1016.7
20260830043149 72 227 1.0 1.0 0.00 0.00 0.00 82 1016.7